Year,Month,Day,Hour,Minute,Value (Times are PST for temperature in C)
2007,05,16,00,00,11.80
2007,05,16,00,01,11.90
2007,05,16,00,02,11.90
2007,05,16,00,03,11.90
2007,05,16,00,04,11.90
2007,05,16,00,05,11.90
2007,05,16,00,06,11.90
2007,05,16,00,07,11.90
2007,05,16,00,08,11.90
2007,05,16,00,09,11.90
2007,05,16,00,10,11.90
2007,05,16,00,11,11.90
2007,05,16,00,12,11.90
2007,05,16,00,13,11.90
2007,05,16,00,14,11.90
2007,05,16,00,15,11.90
2007,05,16,00,16,11.90
2007,05,16,00,17,11.90
2007,05,16,00,18,11.90
2007,05,16,00,19,12.00
2007,05,16,00,20,12.00
2007,05,16,00,21,12.00
2007,05,16,00,22,12.10
2007,05,16,00,23,12.10
2007,05,16,00,24,12.10
2007,05,16,00,25,12.10
2007,05,16,00,26,12.10
2007,05,16,00,27,12.10
2007,05,16,00,28,12.10
2007,05,16,00,29,12.20
2007,05,16,00,30,12.20
2007,05,16,00,31,12.30
2007,05,16,00,32,12.30
2007,05,16,00,33,12.30
2007,05,16,00,34,12.30
2007,05,16,00,35,12.30
2007,05,16,00,36,12.30
2007,05,16,00,37,12.20
2007,05,16,00,38,12.20
2007,05,16,00,39,12.20
2007,05,16,00,40,12.20
2007,05,16,00,41,12.20
2007,05,16,00,42,12.20
2007,05,16,00,43,12.20
2007,05,16,00,44,12.20
2007,05,16,00,45,12.30
2007,05,16,00,46,12.30
2007,05,16,00,47,12.30
2007,05,16,00,48,12.20
2007,05,16,00,49,12.20
2007,05,16,00,50,12.20
2007,05,16,00,51,12.10
2007,05,16,00,52,12.10
2007,05,16,00,53,12.00
2007,05,16,00,54,12.00
2007,05,16,00,55,12.00
2007,05,16,00,56,11.90
2007,05,16,00,57,11.90
2007,05,16,00,58,11.90
2007,05,16,00,59,11.80
2007,05,16,01,00,11.80
2007,05,16,01,01,11.80
2007,05,16,01,02,11.70
2007,05,16,01,03,11.70
2007,05,16,01,04,11.70
2007,05,16,01,05,11.70
2007,05,16,01,06,11.70
2007,05,16,01,07,11.60
2007,05,16,01,08,11.60
2007,05,16,01,09,11.60
2007,05,16,01,10,11.60
2007,05,16,01,11,11.60
2007,05,16,01,12,11.60
2007,05,16,01,13,11.60
2007,05,16,01,14,11.60
2007,05,16,01,15,11.70
2007,05,16,01,16,11.70
2007,05,16,01,17,11.80
2007,05,16,01,18,11.80
2007,05,16,01,19,11.90
2007,05,16,01,20,11.90
2007,05,16,01,21,12.00
2007,05,16,01,22,12.00
2007,05,16,01,23,12.10
2007,05,16,01,24,12.10
2007,05,16,01,25,12.10
2007,05,16,01,26,12.10
2007,05,16,01,27,12.10
2007,05,16,01,28,12.20
2007,05,16,01,29,12.20
2007,05,16,01,30,12.20
2007,05,16,01,31,12.30
2007,05,16,01,32,12.30
2007,05,16,01,33,12.30
2007,05,16,01,34,12.30
2007,05,16,01,35,12.30
2007,05,16,01,36,12.30
2007,05,16,01,37,12.30
2007,05,16,01,38,12.40
2007,05,16,01,39,12.40
2007,05,16,01,40,12.50
2007,05,16,01,41,12.50
2007,05,16,01,42,12.50
2007,05,16,01,43,12.50
2007,05,16,01,44,12.40
2007,05,16,01,45,12.40
2007,05,16,01,46,12.50
2007,05,16,01,47,12.40
2007,05,16,01,48,12.50
2007,05,16,01,49,12.50
2007,05,16,01,50,12.50
2007,05,16,01,51,12.50
2007,05,16,01,52,12.50
2007,05,16,01,53,12.50
2007,05,16,01,54,12.50
2007,05,16,01,55,12.50
2007,05,16,01,56,12.50
2007,05,16,01,57,12.50
2007,05,16,01,58,12.50
2007,05,16,01,59,12.40
2007,05,16,02,00,12.40
2007,05,16,02,01,12.40
2007,05,16,02,02,12.40
2007,05,16,02,03,12.30
2007,05,16,02,04,12.30
2007,05,16,02,05,12.30
2007,05,16,02,06,12.30
2007,05,16,02,07,12.30
2007,05,16,02,08,12.20
2007,05,16,02,09,12.20
2007,05,16,02,10,12.10
2007,05,16,02,11,12.10
2007,05,16,02,12,12.10
2007,05,16,02,13,12.10
2007,05,16,02,14,12.00
2007,05,16,02,15,12.00
2007,05,16,02,16,12.00
2007,05,16,02,17,12.00
2007,05,16,02,18,11.90
2007,05,16,02,19,11.90
2007,05,16,02,20,11.90
2007,05,16,02,21,11.90
2007,05,16,02,22,11.90
2007,05,16,02,23,11.90
2007,05,16,02,24,11.90
2007,05,16,02,25,11.90
2007,05,16,02,26,11.90
2007,05,16,02,27,11.90
2007,05,16,02,28,11.90
2007,05,16,02,29,11.90
2007,05,16,02,30,11.90
2007,05,16,02,31,11.90
2007,05,16,02,32,12.00
2007,05,16,02,33,12.00
2007,05,16,02,34,11.90
2007,05,16,02,35,11.80
2007,05,16,02,36,11.80
2007,05,16,02,37,11.80
2007,05,16,02,38,11.70
2007,05,16,02,39,11.60
2007,05,16,02,40,11.50
2007,05,16,02,41,11.30
2007,05,16,02,42,11.20
2007,05,16,02,43,11.10
2007,05,16,02,44,11.00
2007,05,16,02,45,10.90
2007,05,16,02,46,10.90
2007,05,16,02,47,10.80
2007,05,16,02,48,10.80
2007,05,16,02,49,10.70
2007,05,16,02,50,10.70
2007,05,16,02,51,10.70
2007,05,16,02,52,10.70
2007,05,16,02,53,10.80
2007,05,16,02,54,10.80
2007,05,16,02,55,10.80
2007,05,16,02,56,10.90
2007,05,16,02,57,10.90
2007,05,16,02,58,10.90
2007,05,16,02,59,10.90
2007,05,16,03,00,10.90
2007,05,16,03,01,10.90
2007,05,16,03,02,10.90
2007,05,16,03,03,10.80
2007,05,16,03,04,10.70
2007,05,16,03,05,10.60
2007,05,16,03,06,10.60
2007,05,16,03,07,10.50
2007,05,16,03,08,10.40
2007,05,16,03,09,10.40
2007,05,16,03,10,10.30
2007,05,16,03,11,10.20
2007,05,16,03,12,10.20
2007,05,16,03,13,10.10
2007,05,16,03,14,10.10
2007,05,16,03,15,10.10
2007,05,16,03,16,10.10
2007,05,16,03,17,9.90
2007,05,16,03,18,9.90
2007,05,16,03,19,9.90
2007,05,16,03,20,9.90
2007,05,16,03,21,9.90
2007,05,16,03,22,9.80
2007,05,16,03,23,9.80
2007,05,16,03,24,9.80
2007,05,16,03,25,9.70
2007,05,16,03,26,9.70
2007,05,16,03,27,9.70
2007,05,16,03,28,9.70
2007,05,16,03,29,9.70
2007,05,16,03,30,9.60
2007,05,16,03,31,9.60
2007,05,16,03,32,9.60
2007,05,16,03,33,9.50
2007,05,16,03,34,9.50
2007,05,16,03,35,9.50
2007,05,16,03,36,9.50
2007,05,16,03,37,9.50
2007,05,16,03,38,9.50
2007,05,16,03,39,9.40
2007,05,16,03,40,9.40
2007,05,16,03,41,9.40
2007,05,16,03,42,9.40
2007,05,16,03,43,9.40
2007,05,16,03,44,9.40
2007,05,16,03,45,9.40
2007,05,16,03,46,9.40
2007,05,16,03,47,9.40
2007,05,16,03,48,9.30
2007,05,16,03,49,9.30
2007,05,16,03,50,9.30
2007,05,16,03,51,9.30
2007,05,16,03,52,9.30
2007,05,16,03,53,9.30
2007,05,16,03,54,9.20
2007,05,16,03,55,9.20
2007,05,16,03,56,9.20
2007,05,16,03,57,9.20
2007,05,16,03,58,9.20
2007,05,16,03,59,9.20
2007,05,16,04,00,9.20
2007,05,16,04,01,9.20
2007,05,16,04,02,9.20
2007,05,16,04,03,9.20
2007,05,16,04,04,9.20
2007,05,16,04,05,9.20
2007,05,16,04,06,9.20
2007,05,16,04,07,9.20
2007,05,16,04,08,9.20
2007,05,16,04,09,9.20
2007,05,16,04,10,9.20
2007,05,16,04,11,9.20
2007,05,16,04,12,9.20
2007,05,16,04,13,9.20
2007,05,16,04,14,9.20
2007,05,16,04,15,9.20
2007,05,16,04,16,9.20
2007,05,16,04,17,9.10
2007,05,16,04,18,9.10
2007,05,16,04,19,9.10
2007,05,16,04,20,9.10
2007,05,16,04,21,9.10
2007,05,16,04,22,9.10
2007,05,16,04,23,9.00
2007,05,16,04,24,9.00
2007,05,16,04,25,9.00
2007,05,16,04,26,9.00
2007,05,16,04,27,9.00
2007,05,16,04,28,9.00
2007,05,16,04,29,9.00
2007,05,16,04,30,8.90
2007,05,16,04,31,8.90
2007,05,16,04,32,8.90
2007,05,16,04,33,8.90
2007,05,16,04,34,8.90
2007,05,16,04,35,8.90
2007,05,16,04,36,8.90
2007,05,16,04,37,8.90
2007,05,16,04,38,8.90
2007,05,16,04,39,8.90
2007,05,16,04,40,8.90
2007,05,16,04,41,8.90
2007,05,16,04,42,8.90
2007,05,16,04,43,8.90
2007,05,16,04,44,8.90
2007,05,16,04,45,8.90
2007,05,16,04,46,8.90
2007,05,16,04,47,8.90
2007,05,16,04,48,8.90
2007,05,16,04,49,8.90
2007,05,16,04,50,8.90
2007,05,16,04,51,9.00
2007,05,16,04,52,9.00
2007,05,16,04,53,9.00
2007,05,16,04,54,9.00
2007,05,16,04,55,9.00
2007,05,16,04,56,9.00
2007,05,16,04,57,9.00
2007,05,16,04,58,9.00
2007,05,16,04,59,9.00
2007,05,16,05,00,9.00
2007,05,16,05,01,9.00
2007,05,16,05,02,9.00
2007,05,16,05,03,9.10
2007,05,16,05,04,9.10
2007,05,16,05,05,9.20
2007,05,16,05,06,9.30
2007,05,16,05,07,9.40
2007,05,16,05,08,9.50
2007,05,16,05,09,9.50
2007,05,16,05,10,9.60
2007,05,16,05,11,9.70
2007,05,16,05,12,9.80
2007,05,16,05,13,9.90
2007,05,16,05,14,9.90
2007,05,16,05,15,9.90
2007,05,16,05,16,9.90
2007,05,16,05,17,10.00
2007,05,16,05,18,10.10
2007,05,16,05,19,10.10
2007,05,16,05,20,10.10
2007,05,16,05,21,10.10
2007,05,16,05,22,10.10
2007,05,16,05,23,10.10
2007,05,16,05,24,10.10
2007,05,16,05,25,10.10
2007,05,16,05,26,10.10
2007,05,16,05,27,10.10
2007,05,16,05,28,10.10
2007,05,16,05,29,10.10
2007,05,16,05,30,10.10
2007,05,16,05,31,10.10
2007,05,16,05,32,10.10
2007,05,16,05,33,10.10
2007,05,16,05,34,10.10
2007,05,16,05,35,10.10
2007,05,16,05,36,10.20
2007,05,16,05,37,10.20
2007,05,16,05,38,10.30
2007,05,16,05,39,10.30
2007,05,16,05,40,10.40
2007,05,16,05,41,10.40
2007,05,16,05,42,10.40
2007,05,16,05,43,10.40
2007,05,16,05,44,10.60
2007,05,16,05,45,10.60
2007,05,16,05,46,10.60
2007,05,16,05,47,10.60
2007,05,16,05,48,10.60
2007,05,16,05,49,10.60
2007,05,16,05,50,10.60
2007,05,16,05,51,10.60
2007,05,16,05,52,10.60
2007,05,16,05,53,10.60
2007,05,16,05,54,10.60
2007,05,16,05,55,10.70
2007,05,16,05,56,10.70
2007,05,16,05,57,10.70
2007,05,16,05,58,10.70
2007,05,16,05,59,10.70
2007,05,16,06,00,10.70
2007,05,16,06,01,10.70
2007,05,16,06,02,10.70
2007,05,16,06,03,10.70
2007,05,16,06,04,10.70
2007,05,16,06,05,10.70
2007,05,16,06,06,10.70
2007,05,16,06,07,10.70
2007,05,16,06,08,10.70
2007,05,16,06,09,10.70
2007,05,16,06,10,10.70
2007,05,16,06,11,10.70
2007,05,16,06,12,10.80
2007,05,16,06,13,10.80
2007,05,16,06,14,10.80
2007,05,16,06,15,10.80
2007,05,16,06,16,10.80
2007,05,16,06,17,10.80
2007,05,16,06,18,10.90
2007,05,16,06,19,10.90
2007,05,16,06,20,10.90
2007,05,16,06,21,10.90
2007,05,16,06,22,10.90
2007,05,16,06,23,10.90
2007,05,16,06,24,11.00
2007,05,16,06,25,11.10
2007,05,16,06,26,11.10
2007,05,16,06,27,11.20
2007,05,16,06,28,11.20
2007,05,16,06,29,11.30
2007,05,16,06,30,11.30
2007,05,16,06,31,11.40
2007,05,16,06,32,11.40
2007,05,16,06,33,11.40
2007,05,16,06,34,11.40
2007,05,16,06,35,11.40
2007,05,16,06,36,11.60
2007,05,16,06,37,11.60
2007,05,16,06,38,11.60
2007,05,16,06,39,11.60
2007,05,16,06,40,11.70
2007,05,16,06,41,11.70
2007,05,16,06,42,11.70
2007,05,16,06,43,11.80
2007,05,16,06,44,11.80
2007,05,16,06,45,11.80
2007,05,16,06,46,11.80
2007,05,16,06,47,11.80
2007,05,16,06,48,11.80
2007,05,16,06,49,11.90
2007,05,16,06,50,12.00
2007,05,16,06,51,12.00
2007,05,16,06,52,12.00
2007,05,16,06,53,12.10
2007,05,16,06,54,12.10
2007,05,16,06,55,12.10
2007,05,16,06,56,12.20
2007,05,16,06,57,12.20
2007,05,16,06,58,12.20
2007,05,16,06,59,12.30
2007,05,16,07,00,12.30
2007,05,16,07,01,12.30
2007,05,16,07,02,12.40
2007,05,16,07,03,12.40
2007,05,16,07,04,12.50
2007,05,16,07,05,12.50
2007,05,16,07,06,12.60
2007,05,16,07,07,12.70
2007,05,16,07,08,12.70
2007,05,16,07,09,12.80
2007,05,16,07,10,12.80
2007,05,16,07,11,12.90
2007,05,16,07,12,13.00
2007,05,16,07,13,13.00
2007,05,16,07,14,13.00
2007,05,16,07,15,13.10
2007,05,16,07,16,13.10
2007,05,16,07,17,13.20
2007,05,16,07,18,13.20
2007,05,16,07,19,13.20
2007,05,16,07,20,13.20
2007,05,16,07,21,13.20
2007,05,16,07,22,13.20
2007,05,16,07,23,13.20
2007,05,16,07,24,13.20
2007,05,16,07,25,13.20
2007,05,16,07,26,13.20
2007,05,16,07,27,13.20
2007,05,16,07,28,13.20
2007,05,16,07,29,13.20
2007,05,16,07,30,13.10
2007,05,16,07,31,13.10
2007,05,16,07,32,13.10
2007,05,16,07,33,13.10
2007,05,16,07,34,13.00
2007,05,16,07,35,13.00
2007,05,16,07,36,13.00
2007,05,16,07,37,12.90
2007,05,16,07,38,12.90
2007,05,16,07,39,12.80
2007,05,16,07,40,12.80
2007,05,16,07,41,12.80
2007,05,16,07,42,12.80
2007,05,16,07,43,12.80
2007,05,16,07,44,12.80
2007,05,16,07,45,12.80
2007,05,16,07,46,12.80
2007,05,16,07,47,12.80
2007,05,16,07,48,12.80
2007,05,16,07,49,12.80
2007,05,16,07,50,12.80
2007,05,16,07,51,12.80
2007,05,16,07,52,12.80
2007,05,16,07,53,12.80
2007,05,16,07,54,12.80
2007,05,16,07,55,12.80
2007,05,16,07,56,12.80
2007,05,16,07,57,12.80
2007,05,16,07,58,12.80
2007,05,16,07,59,12.80
2007,05,16,08,00,12.80
2007,05,16,08,01,12.80
2007,05,16,08,02,12.80
2007,05,16,08,03,12.80
2007,05,16,08,04,12.80
2007,05,16,08,05,12.80
2007,05,16,08,06,12.90
2007,05,16,08,07,12.90
2007,05,16,08,08,12.90
2007,05,16,08,09,13.00
2007,05,16,08,10,13.00
2007,05,16,08,11,13.10
2007,05,16,08,12,13.10
2007,05,16,08,13,13.10
2007,05,16,08,14,13.10
2007,05,16,08,15,13.10
2007,05,16,08,16,13.20
2007,05,16,08,17,13.20
2007,05,16,08,18,13.30
2007,05,16,08,19,13.30
2007,05,16,08,20,13.30
2007,05,16,08,21,13.30
2007,05,16,08,22,13.40
2007,05,16,08,23,13.40
2007,05,16,08,24,13.40
2007,05,16,08,25,13.40
2007,05,16,08,26,13.50
2007,05,16,08,27,13.50
2007,05,16,08,28,13.50
2007,05,16,08,29,13.50
2007,05,16,08,30,13.50
2007,05,16,08,31,13.60
2007,05,16,08,32,13.60
2007,05,16,08,33,13.60
2007,05,16,08,34,13.70
2007,05,16,08,35,13.70
2007,05,16,08,36,13.70
2007,05,16,08,37,13.80
2007,05,16,08,38,13.80
2007,05,16,08,39,13.80
2007,05,16,08,40,13.80
2007,05,16,08,41,13.70
2007,05,16,08,42,13.70
2007,05,16,08,43,13.70
2007,05,16,08,44,13.70
2007,05,16,08,45,13.70
2007,05,16,08,46,13.70
2007,05,16,08,47,13.70
2007,05,16,08,48,13.70
2007,05,16,08,49,13.70
2007,05,16,08,50,13.70
2007,05,16,08,51,13.70
2007,05,16,08,52,13.60
2007,05,16,08,53,13.50
2007,05,16,08,54,13.50
2007,05,16,08,55,13.50
2007,05,16,08,56,13.50
2007,05,16,08,57,13.50
2007,05,16,08,58,13.50
2007,05,16,08,59,13.50
2007,05,16,09,00,13.50
2007,05,16,09,01,13.50
2007,05,16,09,02,13.50
2007,05,16,09,03,13.50
2007,05,16,09,04,13.50
2007,05,16,09,05,13.50
2007,05,16,09,06,13.50
2007,05,16,09,07,13.50
2007,05,16,09,08,13.50
2007,05,16,09,09,13.40
2007,05,16,09,10,13.40
2007,05,16,09,11,13.40
2007,05,16,09,12,13.40
2007,05,16,09,13,13.40
2007,05,16,09,14,13.40
2007,05,16,09,15,13.50
2007,05,16,09,16,13.50
2007,05,16,09,17,13.60
2007,05,16,09,18,13.60
2007,05,16,09,19,13.60
2007,05,16,09,20,13.60
2007,05,16,09,21,13.60
2007,05,16,09,22,13.60
2007,05,16,09,23,13.70
2007,05,16,09,24,13.70
2007,05,16,09,25,13.70
2007,05,16,09,26,13.60
2007,05,16,09,27,13.60
2007,05,16,09,28,13.60
2007,05,16,09,29,13.60
2007,05,16,09,30,13.70
2007,05,16,09,31,13.70
2007,05,16,09,32,13.60
2007,05,16,09,33,13.70
2007,05,16,09,34,13.70
2007,05,16,09,35,13.70
2007,05,16,09,36,13.70
2007,05,16,09,37,13.70
2007,05,16,09,38,13.70
2007,05,16,09,39,13.70
2007,05,16,09,40,13.70
2007,05,16,09,41,13.60
2007,05,16,09,42,13.60
2007,05,16,09,43,13.60
2007,05,16,09,44,13.60
2007,05,16,09,45,13.60
2007,05,16,09,46,13.50
2007,05,16,09,47,13.50
2007,05,16,09,48,13.50
2007,05,16,09,49,13.40
2007,05,16,09,50,13.40
2007,05,16,09,51,13.40
2007,05,16,09,52,13.40
2007,05,16,09,53,13.40
2007,05,16,09,54,13.40
2007,05,16,09,55,13.40
2007,05,16,09,56,13.40
2007,05,16,09,57,13.40
2007,05,16,09,58,13.40
2007,05,16,09,59,13.30
2007,05,16,10,00,13.30
2007,05,16,10,01,13.30
2007,05,16,10,02,13.30
2007,05,16,10,03,13.30
2007,05,16,10,04,13.40
2007,05,16,10,05,13.40
2007,05,16,10,06,13.50
2007,05,16,10,07,13.50
2007,05,16,10,08,13.60
2007,05,16,10,09,13.60
2007,05,16,10,10,13.70
2007,05,16,10,11,13.70
2007,05,16,10,12,13.70
2007,05,16,10,13,13.70
2007,05,16,10,14,13.70
2007,05,16,10,15,13.70
2007,05,16,10,16,13.70
2007,05,16,10,17,13.70
2007,05,16,10,18,13.80
2007,05,16,10,19,13.80
2007,05,16,10,20,13.80
2007,05,16,10,21,13.80
2007,05,16,10,22,13.90
2007,05,16,10,23,13.90
2007,05,16,10,24,13.90
2007,05,16,10,25,14.00
2007,05,16,10,26,14.10
2007,05,16,10,27,14.10
2007,05,16,10,28,14.10
2007,05,16,10,29,14.20
2007,05,16,10,30,14.20
2007,05,16,10,31,14.20
2007,05,16,10,32,14.20
2007,05,16,10,33,14.20
2007,05,16,10,34,14.20
2007,05,16,10,35,14.20
2007,05,16,10,36,14.10
2007,05,16,10,37,14.10
2007,05,16,10,38,14.00
2007,05,16,10,39,14.00
2007,05,16,10,40,13.90
2007,05,16,10,41,13.90
2007,05,16,10,42,13.90
2007,05,16,10,43,13.90
2007,05,16,10,44,13.90
2007,05,16,10,45,13.90
2007,05,16,10,46,14.00
2007,05,16,10,47,14.00
2007,05,16,10,48,14.00
2007,05,16,10,49,14.00
2007,05,16,10,50,14.00
2007,05,16,10,51,14.00
2007,05,16,10,52,14.00
2007,05,16,10,53,14.00
2007,05,16,10,54,14.00
2007,05,16,10,55,14.00
2007,05,16,10,56,13.90
2007,05,16,10,57,13.90
2007,05,16,10,58,13.90
2007,05,16,10,59,13.90
2007,05,16,11,00,13.80
2007,05,16,11,01,13.80
2007,05,16,11,02,13.90
2007,05,16,11,03,13.90
2007,05,16,11,04,14.00
2007,05,16,11,05,14.10
2007,05,16,11,06,14.10
2007,05,16,11,07,14.20
2007,05,16,11,08,14.20
2007,05,16,11,09,14.30
2007,05,16,11,10,14.30
2007,05,16,11,11,14.40
2007,05,16,11,12,14.50
2007,05,16,11,13,14.60
2007,05,16,11,14,14.70
2007,05,16,11,15,14.80
2007,05,16,11,16,14.80
2007,05,16,11,17,14.80
2007,05,16,11,18,14.80
2007,05,16,11,19,14.90
2007,05,16,11,20,14.90
2007,05,16,11,21,15.00
2007,05,16,11,22,15.00
2007,05,16,11,23,15.10
2007,05,16,11,24,15.10
2007,05,16,11,25,15.20
2007,05,16,11,26,15.20
2007,05,16,11,27,15.30
2007,05,16,11,28,15.30
2007,05,16,11,29,15.40
2007,05,16,11,30,15.50
2007,05,16,11,31,15.60
2007,05,16,11,32,15.60
2007,05,16,11,33,15.70
2007,05,16,11,34,15.70
2007,05,16,11,35,15.80
2007,05,16,11,36,15.80
2007,05,16,11,37,15.70
2007,05,16,11,38,15.70
2007,05,16,11,39,15.70
2007,05,16,11,40,15.70
2007,05,16,11,41,15.80
2007,05,16,11,42,15.80
2007,05,16,11,43,15.80
2007,05,16,11,44,15.90
2007,05,16,11,45,15.80
2007,05,16,11,46,15.80
2007,05,16,11,47,15.70
2007,05,16,11,48,15.70
2007,05,16,11,49,15.70
2007,05,16,11,50,15.70
2007,05,16,11,51,15.80
2007,05,16,11,52,15.80
2007,05,16,11,53,15.80
2007,05,16,11,54,15.80
2007,05,16,11,55,15.80
2007,05,16,11,56,15.80
2007,05,16,11,57,15.80
2007,05,16,11,58,15.90
2007,05,16,11,59,16.00
2007,05,16,12,00,16.10
2007,05,16,12,01,16.10
2007,05,16,12,02,16.20
2007,05,16,12,03,16.20
2007,05,16,12,04,16.10
2007,05,16,12,05,16.10
2007,05,16,12,06,16.00
2007,05,16,12,07,15.90
2007,05,16,12,08,15.90
2007,05,16,12,09,16.00
2007,05,16,12,10,16.00
2007,05,16,12,11,15.90
2007,05,16,12,12,15.90
2007,05,16,12,13,15.90
2007,05,16,12,14,15.80
2007,05,16,12,15,15.80
2007,05,16,12,16,15.80
2007,05,16,12,17,15.80
2007,05,16,12,18,16.00
2007,05,16,12,19,16.10
2007,05,16,12,20,16.10
2007,05,16,12,21,16.10
2007,05,16,12,22,16.10
2007,05,16,12,23,16.10
2007,05,16,12,24,16.20
2007,05,16,12,25,16.30
2007,05,16,12,26,16.40
2007,05,16,12,27,16.40
2007,05,16,12,28,16.50
2007,05,16,12,29,16.60
2007,05,16,12,30,16.50
2007,05,16,12,31,16.40
2007,05,16,12,32,16.20
2007,05,16,12,33,16.10
2007,05,16,12,34,16.10
2007,05,16,12,35,16.10
2007,05,16,12,36,16.10
2007,05,16,12,37,16.10
2007,05,16,12,38,16.10
2007,05,16,12,39,16.20
2007,05,16,12,40,16.20
2007,05,16,12,41,16.30
2007,05,16,12,42,16.40
2007,05,16,12,43,16.40
2007,05,16,12,44,16.40
2007,05,16,12,45,16.40
2007,05,16,12,46,16.40
2007,05,16,12,47,16.40
2007,05,16,12,48,16.40
2007,05,16,12,49,16.40
2007,05,16,12,50,16.40
2007,05,16,12,51,16.40
2007,05,16,12,52,16.40
2007,05,16,12,53,16.50
2007,05,16,12,54,16.60
2007,05,16,12,55,16.70
2007,05,16,12,56,16.60
2007,05,16,12,57,16.50
2007,05,16,12,58,16.40
2007,05,16,12,59,16.40
2007,05,16,13,00,16.30
2007,05,16,13,01,16.30
2007,05,16,13,02,16.40
2007,05,16,13,03,16.50
2007,05,16,13,04,16.60
2007,05,16,13,05,16.80
2007,05,16,13,06,16.80
2007,05,16,13,07,16.70
2007,05,16,13,08,16.80
2007,05,16,13,09,16.90
2007,05,16,13,10,17.00
2007,05,16,13,11,17.00
2007,05,16,13,12,16.90
2007,05,16,13,13,16.90
2007,05,16,13,14,16.80
2007,05,16,13,15,16.80
2007,05,16,13,16,16.70
2007,05,16,13,17,16.60
2007,05,16,13,18,16.60
2007,05,16,13,19,16.60
2007,05,16,13,20,16.50
2007,05,16,13,21,16.40
2007,05,16,13,22,16.50
2007,05,16,13,23,16.50
2007,05,16,13,24,16.40
2007,05,16,13,25,16.40
2007,05,16,13,26,16.40
2007,05,16,13,27,16.40
2007,05,16,13,28,16.40
2007,05,16,13,29,16.40
2007,05,16,13,30,16.40
2007,05,16,13,31,16.30
2007,05,16,13,32,16.30
2007,05,16,13,33,16.30
2007,05,16,13,34,16.40
2007,05,16,13,35,16.40
2007,05,16,13,36,16.40
2007,05,16,13,37,16.30
2007,05,16,13,38,16.20
2007,05,16,13,39,16.20
2007,05,16,13,40,16.30
2007,05,16,13,41,16.30
2007,05,16,13,42,16.30
2007,05,16,13,43,16.30
2007,05,16,13,44,16.20
2007,05,16,13,45,16.20
2007,05,16,13,46,16.30
2007,05,16,13,47,16.40
2007,05,16,13,48,16.40
2007,05,16,13,49,16.40
2007,05,16,13,50,16.60
2007,05,16,13,51,16.60
2007,05,16,13,52,16.70
2007,05,16,13,53,16.70
2007,05,16,13,54,16.70
2007,05,16,13,55,16.70
2007,05,16,13,56,16.70
2007,05,16,13,57,16.70
2007,05,16,13,58,16.60
2007,05,16,13,59,16.60
2007,05,16,14,00,16.60
2007,05,16,14,01,16.60
2007,05,16,14,02,16.60
2007,05,16,14,03,16.50
2007,05,16,14,04,16.60
2007,05,16,14,05,16.40
2007,05,16,14,06,16.40
2007,05,16,14,07,16.40
2007,05,16,14,08,16.40
2007,05,16,14,09,16.40
2007,05,16,14,10,16.50
2007,05,16,14,11,16.60
2007,05,16,14,12,16.70
2007,05,16,14,13,16.70
2007,05,16,14,14,16.70
2007,05,16,14,15,16.60
2007,05,16,14,16,16.60
2007,05,16,14,17,16.60
2007,05,16,14,18,16.70
2007,05,16,14,19,16.70
2007,05,16,14,20,16.70
2007,05,16,14,21,16.80
2007,05,16,14,22,16.80
2007,05,16,14,23,16.80
2007,05,16,14,24,16.80
2007,05,16,14,25,16.80
2007,05,16,14,26,16.80
2007,05,16,14,27,16.80
2007,05,16,14,28,16.80
2007,05,16,14,29,16.80
2007,05,16,14,30,16.80
2007,05,16,14,31,16.80
2007,05,16,14,32,16.70
2007,05,16,14,33,16.70
2007,05,16,14,34,16.80
2007,05,16,14,35,16.90
2007,05,16,14,36,17.00
2007,05,16,14,37,17.10
2007,05,16,14,38,17.20
2007,05,16,14,39,17.10
2007,05,16,14,40,17.00
2007,05,16,14,41,17.00
2007,05,16,14,42,17.00
2007,05,16,14,43,16.80
2007,05,16,14,44,16.70
2007,05,16,14,45,16.70
2007,05,16,14,46,16.70
2007,05,16,14,47,16.70
2007,05,16,14,48,16.70
2007,05,16,14,49,16.80
2007,05,16,14,50,16.90
2007,05,16,14,51,17.00
2007,05,16,14,52,16.90
2007,05,16,14,53,17.00
2007,05,16,14,54,16.90
2007,05,16,14,55,16.70
2007,05,16,14,56,16.70
2007,05,16,14,57,16.60
2007,05,16,14,58,16.70
2007,05,16,14,59,16.70
2007,05,16,15,00,16.70
2007,05,16,15,01,16.70
2007,05,16,15,02,16.70
2007,05,16,15,03,16.80
2007,05,16,15,04,16.80
2007,05,16,15,05,17.00
2007,05,16,15,06,17.10
2007,05,16,15,07,17.10
2007,05,16,15,08,17.10
2007,05,16,15,09,17.00
2007,05,16,15,10,17.00
2007,05,16,15,11,17.00
2007,05,16,15,12,17.00
2007,05,16,15,13,17.00
2007,05,16,15,14,17.10
2007,05,16,15,15,17.10
2007,05,16,15,16,17.10
2007,05,16,15,17,17.00
2007,05,16,15,18,17.00
2007,05,16,15,19,16.90
2007,05,16,15,20,16.80
2007,05,16,15,21,16.80
2007,05,16,15,22,16.70
2007,05,16,15,23,16.70
2007,05,16,15,24,16.70
2007,05,16,15,25,16.80
2007,05,16,15,26,16.90
2007,05,16,15,27,16.90
2007,05,16,15,28,16.90
2007,05,16,15,29,16.90
2007,05,16,15,30,16.80
2007,05,16,15,31,16.80
2007,05,16,15,32,16.80
2007,05,16,15,33,16.90
2007,05,16,15,34,16.90
2007,05,16,15,35,16.90
2007,05,16,15,36,16.80
2007,05,16,15,37,16.80
2007,05,16,15,38,16.70
2007,05,16,15,39,16.80
2007,05,16,15,40,16.80
2007,05,16,15,41,16.90
2007,05,16,15,42,16.90
2007,05,16,15,43,16.90
2007,05,16,15,44,16.90
2007,05,16,15,45,17.00
2007,05,16,15,46,17.00
2007,05,16,15,47,16.80
2007,05,16,15,48,16.70
2007,05,16,15,49,16.70
2007,05,16,15,50,16.70
2007,05,16,15,51,16.80
2007,05,16,15,52,16.80
2007,05,16,15,53,16.80
2007,05,16,15,54,16.70
2007,05,16,15,55,16.70
2007,05,16,15,56,16.70
2007,05,16,15,57,16.60
2007,05,16,15,58,16.70
2007,05,16,15,59,16.70
2007,05,16,16,00,16.70
2007,05,16,16,01,16.70
2007,05,16,16,02,16.70
2007,05,16,16,03,16.70
2007,05,16,16,04,16.70
2007,05,16,16,05,16.40
2007,05,16,16,06,16.40
2007,05,16,16,07,16.40
2007,05,16,16,08,16.40
2007,05,16,16,09,16.40
2007,05,16,16,10,16.40
2007,05,16,16,11,16.50
2007,05,16,16,12,16.60
2007,05,16,16,13,16.60
2007,05,16,16,14,16.60
2007,05,16,16,15,16.60
2007,05,16,16,16,16.50
2007,05,16,16,17,16.40
2007,05,16,16,18,16.30
2007,05,16,16,19,16.20
2007,05,16,16,20,16.10
2007,05,16,16,21,16.10
2007,05,16,16,22,16.20
2007,05,16,16,23,16.30
2007,05,16,16,24,16.30
2007,05,16,16,25,16.30
2007,05,16,16,26,16.30
2007,05,16,16,27,16.20
2007,05,16,16,28,16.10
2007,05,16,16,29,16.10
2007,05,16,16,30,16.10
2007,05,16,16,31,15.90
2007,05,16,16,32,15.90
2007,05,16,16,33,15.90
2007,05,16,16,34,15.90
2007,05,16,16,35,15.90
2007,05,16,16,36,15.90
2007,05,16,16,37,15.90
2007,05,16,16,38,16.10
2007,05,16,16,39,16.10
2007,05,16,16,40,16.10
2007,05,16,16,41,16.10
2007,05,16,16,42,16.10
2007,05,16,16,43,15.90
2007,05,16,16,44,15.90
2007,05,16,16,45,15.90
2007,05,16,16,46,15.80
2007,05,16,16,47,15.80
2007,05,16,16,48,15.80
2007,05,16,16,49,15.80
2007,05,16,16,50,15.80
2007,05,16,16,51,15.80
2007,05,16,16,52,15.80
2007,05,16,16,53,15.80
2007,05,16,16,54,15.90
2007,05,16,16,55,16.00
2007,05,16,16,56,16.10
2007,05,16,16,57,16.10
2007,05,16,16,58,16.10
2007,05,16,16,59,16.10
2007,05,16,17,00,16.10
2007,05,16,17,01,16.10
2007,05,16,17,02,16.10
2007,05,16,17,03,16.20
2007,05,16,17,04,16.20
2007,05,16,17,05,16.20
2007,05,16,17,06,16.20
2007,05,16,17,07,16.10
2007,05,16,17,08,16.10
2007,05,16,17,09,16.10
2007,05,16,17,10,16.10
2007,05,16,17,11,16.10
2007,05,16,17,12,16.10
2007,05,16,17,13,16.10
2007,05,16,17,14,16.10
2007,05,16,17,15,16.10
2007,05,16,17,16,16.10
2007,05,16,17,17,16.10
2007,05,16,17,18,16.10
2007,05,16,17,19,16.10
2007,05,16,17,20,16.10
2007,05,16,17,21,16.10
2007,05,16,17,22,16.10
2007,05,16,17,23,16.10
2007,05,16,17,24,16.10